Year,Month,Day,Hour,Minute,Value (Times are PST for temperature in C)
2014,09,12,00,00,10.60
2014,09,12,00,01,10.60
2014,09,12,00,02,10.60
2014,09,12,00,03,10.60
2014,09,12,00,04,10.60
2014,09,12,00,05,10.60
2014,09,12,00,06,10.50
2014,09,12,00,07,10.50
2014,09,12,00,08,10.40
2014,09,12,00,09,10.40
2014,09,12,00,10,10.40
2014,09,12,00,11,10.30
2014,09,12,00,12,10.30
2014,09,12,00,13,10.30
2014,09,12,00,14,10.30
2014,09,12,00,15,10.20
2014,09,12,00,16,10.20
2014,09,12,00,17,10.20
2014,09,12,00,18,10.20
2014,09,12,00,19,10.20
2014,09,12,00,20,10.20
2014,09,12,00,21,10.20
2014,09,12,00,22,10.20
2014,09,12,00,23,10.20
2014,09,12,00,24,10.20
2014,09,12,00,25,10.10
2014,09,12,00,26,10.10
2014,09,12,00,27,10.10
2014,09,12,00,28,10.10
2014,09,12,00,29,10.00
2014,09,12,00,30,10.00
2014,09,12,00,31,10.00
2014,09,12,00,32,10.00
2014,09,12,00,33,9.90
2014,09,12,00,34,9.90
2014,09,12,00,35,9.90
2014,09,12,00,36,9.80
2014,09,12,00,37,9.80
2014,09,12,00,38,9.80
2014,09,12,00,39,9.70
2014,09,12,00,40,9.70
2014,09,12,00,41,9.70
2014,09,12,00,42,9.70
2014,09,12,00,43,9.70
2014,09,12,00,44,9.70
2014,09,12,00,45,9.70
2014,09,12,00,46,9.70
2014,09,12,00,47,9.70
2014,09,12,00,48,9.70
2014,09,12,00,49,9.70
2014,09,12,00,50,9.70
2014,09,12,00,51,9.70
2014,09,12,00,52,9.60
2014,09,12,00,53,9.60
2014,09,12,00,54,9.60
2014,09,12,00,55,9.60
2014,09,12,00,56,9.50
2014,09,12,00,57,9.50
2014,09,12,00,58,9.40
2014,09,12,00,59,9.40
2014,09,12,01,00,9.40
2014,09,12,01,01,9.40
2014,09,12,01,02,9.30
2014,09,12,01,03,9.30
2014,09,12,01,04,9.30
2014,09,12,01,05,9.30
2014,09,12,01,06,9.30
2014,09,12,01,07,9.30
2014,09,12,01,08,9.30
2014,09,12,01,09,9.30
2014,09,12,01,10,9.30
2014,09,12,01,11,9.30
2014,09,12,01,12,9.30
2014,09,12,01,13,9.30
2014,09,12,01,14,9.30
2014,09,12,01,15,9.30
2014,09,12,01,16,9.20
2014,09,12,01,17,9.20
2014,09,12,01,18,9.20
2014,09,12,01,19,9.20
2014,09,12,01,20,9.20
2014,09,12,01,21,9.20
2014,09,12,01,22,9.20
2014,09,12,01,23,9.20
2014,09,12,01,24,9.20
2014,09,12,01,25,9.20
2014,09,12,01,26,9.20
2014,09,12,01,27,9.20
2014,09,12,01,28,9.20
2014,09,12,01,29,9.20
2014,09,12,01,30,9.20
2014,09,12,01,31,9.10
2014,09,12,01,32,9.10
2014,09,12,01,33,9.10
2014,09,12,01,34,9.10
2014,09,12,01,35,9.10
2014,09,12,01,36,9.00
2014,09,12,01,37,9.00
2014,09,12,01,38,8.90
2014,09,12,01,39,8.90
2014,09,12,01,40,8.90
2014,09,12,01,41,8.80
2014,09,12,01,42,8.80
2014,09,12,01,43,8.80
2014,09,12,01,44,8.70
2014,09,12,01,45,8.70
2014,09,12,01,46,8.60
2014,09,12,01,47,8.60
2014,09,12,01,48,8.60
2014,09,12,01,49,8.50
2014,09,12,01,50,8.50
2014,09,12,01,51,8.50
2014,09,12,01,52,8.40
2014,09,12,01,53,8.40
2014,09,12,01,54,8.30
2014,09,12,01,55,8.30
2014,09,12,01,56,8.30
2014,09,12,01,57,8.30
2014,09,12,01,58,8.30
2014,09,12,01,59,8.30
2014,09,12,02,00,8.30
2014,09,12,02,01,8.30
2014,09,12,02,02,8.40
2014,09,12,02,03,8.40
2014,09,12,02,04,8.40
2014,09,12,02,05,8.40
2014,09,12,02,06,8.40
2014,09,12,02,07,8.40
2014,09,12,02,08,8.30
2014,09,12,02,09,8.30
2014,09,12,02,10,8.30
2014,09,12,02,11,8.30
2014,09,12,02,12,8.30
2014,09,12,02,13,8.30
2014,09,12,02,14,8.20
2014,09,12,02,15,8.20
2014,09,12,02,16,8.20
2014,09,12,02,17,8.20
2014,09,12,02,18,8.20
2014,09,12,02,19,8.30
2014,09,12,02,20,8.30
2014,09,12,02,21,8.30
2014,09,12,02,22,8.40
2014,09,12,02,23,8.50
2014,09,12,02,24,8.50
2014,09,12,02,25,8.50
2014,09,12,02,26,8.50
2014,09,12,02,27,8.60
2014,09,12,02,28,8.60
2014,09,12,02,29,8.60
2014,09,12,02,30,8.50
2014,09,12,02,31,8.50
2014,09,12,02,32,8.50
2014,09,12,02,33,8.50
2014,09,12,02,34,8.50
2014,09,12,02,35,8.60
2014,09,12,02,36,8.60
2014,09,12,02,37,8.70
2014,09,12,02,38,8.70
2014,09,12,02,39,8.70
2014,09,12,02,40,8.70
2014,09,12,02,41,8.80
2014,09,12,02,42,8.90
2014,09,12,02,43,8.90
2014,09,12,02,44,8.90
2014,09,12,02,45,8.90
2014,09,12,02,46,8.80
2014,09,12,02,47,8.80
2014,09,12,02,48,8.80
2014,09,12,02,49,8.80
2014,09,12,02,50,8.80
2014,09,12,02,51,8.70
2014,09,12,02,52,8.70
2014,09,12,02,53,8.70
2014,09,12,02,54,8.70
2014,09,12,02,55,8.70
2014,09,12,02,56,8.70
2014,09,12,02,57,8.60
2014,09,12,02,58,8.60
2014,09,12,02,59,8.60
2014,09,12,03,00,8.50
2014,09,12,03,01,8.50
2014,09,12,03,02,8.50
2014,09,12,03,03,8.40
2014,09,12,03,04,8.40
2014,09,12,03,05,8.40
2014,09,12,03,06,8.30
2014,09,12,03,07,8.30
2014,09,12,03,08,8.30
2014,09,12,03,09,8.30
2014,09,12,03,10,8.30
2014,09,12,03,11,8.30
2014,09,12,03,12,8.30
2014,09,12,03,13,8.30
2014,09,12,03,14,8.30
2014,09,12,03,15,8.20
2014,09,12,03,16,8.20
2014,09,12,03,17,8.20
2014,09,12,03,18,8.20
2014,09,12,03,19,8.20
2014,09,12,03,20,8.20
2014,09,12,03,21,8.20
2014,09,12,03,22,8.10
2014,09,12,03,23,8.10
2014,09,12,03,24,8.10
2014,09,12,03,25,8.10
2014,09,12,03,26,8.10
2014,09,12,03,27,8.10
2014,09,12,03,28,8.00
2014,09,12,03,29,8.00
2014,09,12,03,30,8.00
2014,09,12,03,31,7.90
2014,09,12,03,32,7.90
2014,09,12,03,33,7.90
2014,09,12,03,34,7.90
2014,09,12,03,35,7.80
2014,09,12,03,36,7.80
2014,09,12,03,37,7.80
2014,09,12,03,38,7.80
2014,09,12,03,39,7.80
2014,09,12,03,40,7.70
2014,09,12,03,41,7.70
2014,09,12,03,42,7.70
2014,09,12,03,43,7.70
2014,09,12,03,44,7.70
2014,09,12,03,45,7.70
2014,09,12,03,46,7.60
2014,09,12,03,47,7.60
2014,09,12,03,48,7.60
2014,09,12,03,49,7.60
2014,09,12,03,50,7.50
2014,09,12,03,51,7.50
2014,09,12,03,52,7.50
2014,09,12,03,53,7.40
2014,09,12,03,54,7.40
2014,09,12,03,55,7.40
2014,09,12,03,56,7.30
2014,09,12,03,57,7.30
2014,09,12,03,58,7.30
2014,09,12,03,59,7.20
2014,09,12,04,00,7.20
2014,09,12,04,01,7.20
2014,09,12,04,02,7.20
2014,09,12,04,03,7.20
2014,09,12,04,04,7.10
2014,09,12,04,05,7.10
2014,09,12,04,06,7.10
2014,09,12,04,07,7.10
2014,09,12,04,08,7.10
2014,09,12,04,09,7.10
2014,09,12,04,10,7.10
2014,09,12,04,11,7.10
2014,09,12,04,12,7.10
2014,09,12,04,13,7.10
2014,09,12,04,14,7.10
2014,09,12,04,15,7.10
2014,09,12,04,16,7.10
2014,09,12,04,17,7.10
2014,09,12,04,18,7.20
2014,09,12,04,19,7.20
2014,09,12,04,20,7.20
2014,09,12,04,21,7.30
2014,09,12,04,22,7.30
2014,09,12,04,23,7.30
2014,09,12,04,24,7.30
2014,09,12,04,25,7.30
2014,09,12,04,26,7.40
2014,09,12,04,27,7.50
2014,09,12,04,28,7.50
2014,09,12,04,29,7.60
2014,09,12,04,30,7.60
2014,09,12,04,31,7.70
2014,09,12,04,32,7.80
2014,09,12,04,33,7.80
2014,09,12,04,34,7.90
2014,09,12,04,35,7.90
2014,09,12,04,36,7.90
2014,09,12,04,37,8.00
2014,09,12,04,38,8.00
2014,09,12,04,39,8.00
2014,09,12,04,40,8.00
2014,09,12,04,41,8.00
2014,09,12,04,42,8.00
2014,09,12,04,43,8.00
2014,09,12,04,44,7.90
2014,09,12,04,45,7.90
2014,09,12,04,46,7.90
2014,09,12,04,47,7.90
2014,09,12,04,48,7.90
2014,09,12,04,49,7.90
2014,09,12,04,50,7.90
2014,09,12,04,51,7.90
2014,09,12,04,52,7.80
2014,09,12,04,53,7.80
2014,09,12,04,54,7.80
2014,09,12,04,55,7.70
2014,09,12,04,56,7.70
2014,09,12,04,57,7.70
2014,09,12,04,58,7.60
2014,09,12,04,59,7.60
2014,09,12,05,00,7.50
2014,09,12,05,01,7.50
2014,09,12,05,02,7.50
2014,09,12,05,03,7.60
2014,09,12,05,04,7.60
2014,09,12,05,05,7.60
2014,09,12,05,06,7.60
2014,09,12,05,07,7.60
2014,09,12,05,08,7.60
2014,09,12,05,09,7.60
2014,09,12,05,10,7.60
2014,09,12,05,11,7.60
2014,09,12,05,12,7.60
2014,09,12,05,13,7.50
2014,09,12,05,14,7.50
2014,09,12,05,15,7.60
2014,09,12,05,16,7.60
2014,09,12,05,17,7.60
2014,09,12,05,18,7.50
2014,09,12,05,19,7.50
2014,09,12,05,20,7.50
2014,09,12,05,21,7.40
2014,09,12,05,22,7.40
2014,09,12,05,23,7.40
2014,09,12,05,24,7.30
2014,09,12,05,25,7.30
2014,09,12,05,26,7.20
2014,09,12,05,27,7.20
2014,09,12,05,28,7.10
2014,09,12,05,29,7.10
2014,09,12,05,30,7.10
2014,09,12,05,31,7.00
2014,09,12,05,32,7.00
2014,09,12,05,33,6.90
2014,09,12,05,34,6.90
2014,09,12,05,35,6.90
2014,09,12,05,36,6.80
2014,09,12,05,37,6.80
2014,09,12,05,38,6.80
2014,09,12,05,39,6.80
2014,09,12,05,40,6.70
2014,09,12,05,41,6.70
2014,09,12,05,42,6.70
2014,09,12,05,43,6.70
2014,09,12,05,44,6.70
2014,09,12,05,45,6.70
2014,09,12,05,46,6.70
2014,09,12,05,47,6.70
2014,09,12,05,48,6.70
2014,09,12,05,49,6.70
2014,09,12,05,50,6.70
2014,09,12,05,51,6.80
2014,09,12,05,52,6.80
2014,09,12,05,53,6.80
2014,09,12,05,54,6.90
2014,09,12,05,55,6.90
2014,09,12,05,56,6.90
2014,09,12,05,57,6.90
2014,09,12,05,58,6.90
2014,09,12,05,59,6.90
2014,09,12,06,00,6.90
2014,09,12,06,01,7.00
2014,09,12,06,02,7.00
2014,09,12,06,03,7.00
2014,09,12,06,04,7.10
2014,09,12,06,05,7.10
2014,09,12,06,06,7.10
2014,09,12,06,07,7.10
2014,09,12,06,08,7.10
2014,09,12,06,09,7.10
2014,09,12,06,10,7.10
2014,09,12,06,11,7.10
2014,09,12,06,12,7.10
2014,09,12,06,13,7.20
2014,09,12,06,14,7.20
2014,09,12,06,15,7.20
2014,09,12,06,16,7.20
2014,09,12,06,17,7.20
2014,09,12,06,18,7.20
2014,09,12,06,19,7.20
2014,09,12,06,20,7.20
2014,09,12,06,21,7.20
2014,09,12,06,22,7.20
2014,09,12,06,23,7.10
2014,09,12,06,24,7.10
2014,09,12,06,25,7.10
2014,09,12,06,26,7.10
2014,09,12,06,27,7.10
2014,09,12,06,28,7.10
2014,09,12,06,29,7.10
2014,09,12,06,30,7.10
2014,09,12,06,31,7.10
2014,09,12,06,32,7.10
2014,09,12,06,33,7.10
2014,09,12,06,34,7.10
2014,09,12,06,35,7.10
2014,09,12,06,36,7.10
2014,09,12,06,37,7.10
2014,09,12,06,38,7.10
2014,09,12,06,39,7.10
2014,09,12,06,40,7.10
2014,09,12,06,41,7.10
2014,09,12,06,42,7.10
2014,09,12,06,43,7.10
2014,09,12,06,44,7.10
2014,09,12,06,45,7.10
2014,09,12,06,46,7.10
2014,09,12,06,47,7.10
2014,09,12,06,48,7.10
2014,09,12,06,49,7.10
2014,09,12,06,50,7.10
2014,09,12,06,51,7.10
2014,09,12,06,52,7.10
2014,09,12,06,53,7.20
2014,09,12,06,54,7.20
2014,09,12,06,55,7.20
2014,09,12,06,56,7.20
2014,09,12,06,57,7.20
2014,09,12,06,58,7.20
2014,09,12,06,59,7.20
2014,09,12,07,00,7.20
2014,09,12,07,01,7.20
2014,09,12,07,02,7.20
2014,09,12,07,03,7.20
2014,09,12,07,04,7.20
2014,09,12,07,05,7.10
2014,09,12,07,06,7.10
2014,09,12,07,07,7.10
2014,09,12,07,08,7.10
2014,09,12,07,09,7.10
2014,09,12,07,10,7.10
2014,09,12,07,11,7.10
2014,09,12,07,12,7.00
2014,09,12,07,13,7.00
2014,09,12,07,14,7.10
2014,09,12,07,15,7.10
2014,09,12,07,16,7.10
2014,09,12,07,17,7.10
2014,09,12,07,18,7.20
2014,09,12,07,19,7.20
2014,09,12,07,20,7.20
2014,09,12,07,21,7.20
2014,09,12,07,22,7.20
2014,09,12,07,23,7.30
2014,09,12,07,24,7.30
2014,09,12,07,25,7.30
2014,09,12,07,26,7.30
2014,09,12,07,27,7.40
2014,09,12,07,28,7.50
2014,09,12,07,29,7.50
2014,09,12,07,30,7.60
2014,09,12,07,31,7.60
2014,09,12,07,32,7.70
2014,09,12,07,33,7.70
2014,09,12,07,34,7.80
2014,09,12,07,35,7.80
2014,09,12,07,36,7.80
2014,09,12,07,37,7.90
2014,09,12,07,38,7.90
2014,09,12,07,39,7.90
2014,09,12,07,40,8.00
2014,09,12,07,41,8.00
2014,09,12,07,42,8.00
2014,09,12,07,43,8.00
2014,09,12,07,44,7.90
2014,09,12,07,45,7.90
2014,09,12,07,46,7.90
2014,09,12,07,47,8.00
2014,09,12,07,48,8.00
2014,09,12,07,49,8.10
2014,09,12,07,50,8.10
2014,09,12,07,51,8.20
2014,09,12,07,52,8.20
2014,09,12,07,53,8.30
2014,09,12,07,54,8.30
2014,09,12,07,55,8.40
2014,09,12,07,56,8.50
2014,09,12,07,57,8.60
2014,09,12,07,58,8.70
2014,09,12,07,59,8.80
2014,09,12,08,00,8.90
2014,09,12,08,01,8.90
2014,09,12,08,02,9.00
2014,09,12,08,03,9.10
2014,09,12,08,04,9.10
2014,09,12,08,05,9.20
2014,09,12,08,06,9.20
2014,09,12,08,07,9.30
2014,09,12,08,08,9.30
2014,09,12,08,09,9.40
2014,09,12,08,10,9.40
2014,09,12,08,11,9.50
2014,09,12,08,12,9.60
2014,09,12,08,13,9.70
2014,09,12,08,14,9.80
2014,09,12,08,15,9.90
2014,09,12,08,16,9.90
2014,09,12,08,17,9.90
2014,09,12,08,18,10.00
2014,09,12,08,19,10.00
2014,09,12,08,20,10.10
2014,09,12,08,21,10.10
2014,09,12,08,22,10.20
2014,09,12,08,23,10.20
2014,09,12,08,24,10.30
2014,09,12,08,25,10.30
2014,09,12,08,26,10.40
2014,09,12,08,27,10.50
2014,09,12,08,28,10.60
2014,09,12,08,29,10.70
2014,09,12,08,30,10.80
2014,09,12,08,31,10.90
2014,09,12,08,32,11.00
2014,09,12,08,33,11.00
2014,09,12,08,34,11.20
2014,09,12,08,35,11.30
2014,09,12,08,36,11.50
2014,09,12,08,37,11.70
2014,09,12,08,38,11.80
2014,09,12,08,39,12.00
2014,09,12,08,40,12.20
2014,09,12,08,41,12.30
2014,09,12,08,42,12.40
2014,09,12,08,43,12.50
2014,09,12,08,44,12.60
2014,09,12,08,45,12.70
2014,09,12,08,46,12.90
2014,09,12,08,47,13.00
2014,09,12,08,48,13.10
2014,09,12,08,49,13.30
2014,09,12,08,50,13.30
2014,09,12,08,51,13.40
2014,09,12,08,52,13.50
2014,09,12,08,53,13.60
2014,09,12,08,54,13.70
2014,09,12,08,55,13.80
2014,09,12,08,56,13.90
2014,09,12,08,57,14.00
2014,09,12,08,58,14.00
2014,09,12,08,59,14.10
2014,09,12,09,00,14.10
2014,09,12,09,01,14.20
2014,09,12,09,02,14.30
2014,09,12,09,03,14.30
2014,09,12,09,04,14.40
2014,09,12,09,05,14.40
2014,09,12,09,06,14.50
2014,09,12,09,07,14.50
2014,09,12,09,08,14.50
2014,09,12,09,09,14.50
2014,09,12,09,10,14.60
2014,09,12,09,11,14.60
2014,09,12,09,12,14.60
2014,09,12,09,13,14.60
2014,09,12,09,14,14.60
2014,09,12,09,15,14.60
2014,09,12,09,16,14.60
2014,09,12,09,17,14.60
2014,09,12,09,18,14.60
2014,09,12,09,19,14.70
2014,09,12,09,20,14.70
2014,09,12,09,21,14.80
2014,09,12,09,22,14.90
2014,09,12,09,23,15.10
2014,09,12,09,24,15.20
2014,09,12,09,25,15.40
2014,09,12,09,26,15.50
2014,09,12,09,27,15.70
2014,09,12,09,28,15.80
2014,09,12,09,29,15.90
2014,09,12,09,30,16.10
2014,09,12,09,31,16.10
2014,09,12,09,32,16.20
2014,09,12,09,33,16.30
2014,09,12,09,34,16.40
2014,09,12,09,35,16.50
2014,09,12,09,36,16.60
2014,09,12,09,37,16.70
2014,09,12,09,38,16.70
2014,09,12,09,39,16.80
2014,09,12,09,40,16.90
2014,09,12,09,41,17.00
2014,09,12,09,42,17.10
2014,09,12,09,43,17.20
2014,09,12,09,44,17.20
2014,09,12,09,45,17.20
2014,09,12,09,46,17.20
2014,09,12,09,47,17.10
2014,09,12,09,48,17.10
2014,09,12,09,49,17.10
2014,09,12,09,50,17.10
2014,09,12,09,51,17.20
2014,09,12,09,52,17.20
2014,09,12,09,53,17.30
2014,09,12,09,54,17.30
2014,09,12,09,55,17.30
2014,09,12,09,56,17.40
2014,09,12,09,57,17.40
2014,09,12,09,58,17.40
2014,09,12,09,59,17.40
2014,09,12,10,00,17.40
2014,09,12,10,01,17.40
2014,09,12,10,02,17.40
2014,09,12,10,03,17.50
2014,09,12,10,04,17.50
2014,09,12,10,05,17.60
2014,09,12,10,06,17.70
2014,09,12,10,07,17.70
2014,09,12,10,08,17.80
2014,09,12,10,09,17.80
2014,09,12,10,10,17.90
2014,09,12,10,11,18.00
2014,09,12,10,12,18.10
2014,09,12,10,13,18.20
2014,09,12,10,14,18.30
2014,09,12,10,15,18.40
2014,09,12,10,16,18.50
2014,09,12,10,17,18.60
2014,09,12,10,18,18.70
2014,09,12,10,19,18.70
2014,09,12,10,20,18.80
2014,09,12,10,21,18.80
2014,09,12,10,22,18.90
2014,09,12,10,23,19.00
2014,09,12,10,24,19.00
2014,09,12,10,25,19.10
2014,09,12,10,26,19.20
2014,09,12,10,27,19.30
2014,09,12,10,28,19.40
2014,09,12,10,29,19.50
2014,09,12,10,30,19.50
2014,09,12,10,31,19.60
2014,09,12,10,32,19.60
2014,09,12,10,33,19.70
2014,09,12,10,34,19.70
2014,09,12,10,35,19.70
2014,09,12,10,36,19.70
2014,09,12,10,37,19.80
2014,09,12,10,38,19.90
2014,09,12,10,39,20.00
2014,09,12,10,40,20.10
2014,09,12,10,41,20.20
2014,09,12,10,42,20.30
2014,09,12,10,43,20.40
2014,09,12,10,44,20.40
2014,09,12,10,45,20.50
2014,09,12,10,46,20.70
2014,09,12,10,47,20.80
2014,09,12,10,48,20.90
2014,09,12,10,49,21.00
2014,09,12,10,50,21.10
2014,09,12,10,51,21.10
2014,09,12,10,52,21.10
2014,09,12,10,53,21.10
2014,09,12,10,54,21.10
2014,09,12,10,55,21.10
2014,09,12,10,56,21.10
2014,09,12,10,57,21.10
2014,09,12,10,58,21.10
2014,09,12,10,59,21.10
2014,09,12,11,00,21.20
2014,09,12,11,01,21.20
2014,09,12,11,02,21.30
2014,09,12,11,03,21.30
2014,09,12,11,04,21.30
2014,09,12,11,05,21.30
2014,09,12,11,06,21.30
2014,09,12,11,07,21.40
2014,09,12,11,08,21.40
2014,09,12,11,09,21.40
2014,09,12,11,10,21.40
2014,09,12,11,11,21.40
2014,09,12,11,12,21.40
2014,09,12,11,13,21.40
2014,09,12,11,14,21.40
2014,09,12,11,15,21.40
2014,09,12,11,16,21.40
2014,09,12,11,17,21.40
2014,09,12,11,18,21.40
2014,09,12,11,19,21.40
2014,09,12,11,20,21.40
2014,09,12,11,21,21.30
2014,09,12,11,22,21.30
2014,09,12,11,23,21.30
2014,09,12,11,24,21.30
2014,09,12,11,25,21.40
2014,09,12,11,26,21.50
2014,09,12,11,27,21.50
2014,09,12,11,28,21.60
2014,09,12,11,29,21.50
2014,09,12,11,30,21.50
2014,09,12,11,31,21.40
2014,09,12,11,32,21.40
2014,09,12,11,33,21.30
2014,09,12,11,34,21.20
2014,09,12,11,35,21.20
2014,09,12,11,36,21.10
2014,09,12,11,37,21.10
2014,09,12,11,38,21.10
2014,09,12,11,39,21.00
2014,09,12,11,40,21.00
2014,09,12,11,41,21.00
2014,09,12,11,42,21.00
2014,09,12,11,43,21.10
2014,09,12,11,44,21.10
2014,09,12,11,45,21.20
2014,09,12,11,46,21.20
2014,09,12,11,47,21.20
2014,09,12,11,48,21.20
2014,09,12,11,49,21.20
2014,09,12,11,50,21.20
2014,09,12,11,51,21.20
2014,09,12,11,52,21.20
2014,09,12,11,53,21.20
2014,09,12,11,54,21.20
2014,09,12,11,55,21.20
2014,09,12,11,56,21.20
2014,09,12,11,57,21.20
2014,09,12,11,58,21.30
2014,09,12,11,59,21.30
2014,09,12,12,00,21.40
2014,09,12,12,01,21.40
2014,09,12,12,02,21.40
2014,09,12,12,03,21.50
2014,09,12,12,04,21.50
2014,09,12,12,05,21.60
2014,09,12,12,06,21.60
2014,09,12,12,07,21.50
2014,09,12,12,08,21.50
2014,09,12,12,09,21.40
2014,09,12,12,10,21.40
2014,09,12,12,11,21.40
2014,09,12,12,12,21.40
2014,09,12,12,13,21.40
2014,09,12,12,14,21.50
2014,09,12,12,15,21.50
2014,09,12,12,16,21.50
2014,09,12,12,17,21.60
2014,09,12,12,18,21.60
2014,09,12,12,19,21.60
2014,09,12,12,20,21.60
2014,09,12,12,21,21.60
2014,09,12,12,22,21.60
2014,09,12,12,23,21.60
2014,09,12,12,24,21.70
2014,09,12,12,25,21.70
2014,09,12,12,26,21.70
2014,09,12,12,27,21.80
2014,09,12,12,28,21.70
2014,09,12,12,29,21.70
2014,09,12,12,30,21.70
2014,09,12,12,31,21.70
2014,09,12,12,32,21.60
2014,09,12,12,33,21.60
2014,09,12,12,34,21.70
2014,09,12,12,35,21.70
2014,09,12,12,36,21.70
2014,09,12,12,37,21.70
2014,09,12,12,38,21.80
2014,09,12,12,39,21.80
2014,09,12,12,40,21.80
2014,09,12,12,41,21.80
2014,09,12,12,42,21.80
2014,09,12,12,43,21.80
2014,09,12,12,44,21.90
2014,09,12,12,45,21.90
2014,09,12,12,46,21.90
2014,09,12,12,47,21.90
2014,09,12,12,48,21.90
2014,09,12,12,49,22.00
2014,09,12,12,50,22.00
2014,09,12,12,51,22.10
2014,09,12,12,52,22.10
2014,09,12,12,53,22.20
2014,09,12,12,54,22.30
2014,09,12,12,55,22.30
2014,09,12,12,56,22.40
2014,09,12,12,57,22.40
2014,09,12,12,58,22.40
2014,09,12,12,59,22.40
2014,09,12,13,00,22.40
2014,09,12,13,01,22.40
2014,09,12,13,02,22.40
2014,09,12,13,03,22.40
2014,09,12,13,04,22.30
2014,09,12,13,05,22.30
2014,09,12,13,06,22.30
2014,09,12,13,07,22.30
2014,09,12,13,08,22.30
2014,09,12,13,09,22.30
2014,09,12,13,10,22.30
2014,09,12,13,11,22.40
2014,09,12,13,12,22.40
2014,09,12,13,13,22.50
2014,09,12,13,14,22.60
2014,09,12,13,15,22.60
2014,09,12,13,16,22.50
2014,09,12,13,17,22.40
2014,09,12,13,18,22.30
2014,09,12,13,19,22.10
2014,09,12,13,20,22.00
2014,09,12,13,21,21.90
2014,09,12,13,22,21.80
2014,09,12,13,23,21.80
2014,09,12,13,24,21.80
2014,09,12,13,25,21.80
2014,09,12,13,26,21.80
2014,09,12,13,27,21.80
2014,09,12,13,28,21.90
2014,09,12,13,29,22.00
2014,09,12,13,30,22.10
2014,09,12,13,31,22.20
2014,09,12,13,32,22.20
2014,09,12,13,33,22.20
2014,09,12,13,34,22.30
2014,09,12,13,35,22.30
2014,09,12,13,36,22.30
2014,09,12,13,37,22.30
2014,09,12,13,38,22.30
2014,09,12,13,39,22.20
2014,09,12,13,40,22.20
2014,09,12,13,41,22.20
2014,09,12,13,42,22.20
2014,09,12,13,43,22.30
2014,09,12,13,44,22.30
2014,09,12,13,45,22.30
2014,09,12,13,46,22.30
2014,09,12,13,47,22.30
2014,09,12,13,48,22.30
2014,09,12,13,49,22.20
2014,09,12,13,50,22.10
2014,09,12,13,51,22.10
2014,09,12,13,52,22.00
2014,09,12,13,53,21.90
2014,09,12,13,54,21.90
2014,09,12,13,55,21.80
2014,09,12,13,56,21.80
2014,09,12,13,57,21.80
2014,09,12,13,58,21.80
2014,09,12,13,59,21.80
2014,09,12,14,00,21.70
2014,09,12,14,01,21.70
2014,09,12,14,02,21.70
2014,09,12,14,03,21.70
2014,09,12,14,04,21.70
2014,09,12,14,05,21.70
2014,09,12,14,06,21.80
2014,09,12,14,07,21.80
2014,09,12,14,08,21.80
2014,09,12,14,09,21.90
2014,09,12,14,10,21.90
2014,09,12,14,11,21.90
2014,09,12,14,12,21.90
2014,09,12,14,13,22.00
2014,09,12,14,14,22.00
2014,09,12,14,15,22.10
2014,09,12,14,16,22.10
2014,09,12,14,17,22.10
2014,09,12,14,18,22.10
2014,09,12,14,19,22.10
2014,09,12,14,20,22.10
2014,09,12,14,21,22.00
2014,09,12,14,22,22.00
2014,09,12,14,23,22.00
2014,09,12,14,24,21.90
2014,09,12,14,25,21.90
2014,09,12,14,26,21.80
2014,09,12,14,27,21.80
2014,09,12,14,28,21.80
2014,09,12,14,29,21.90
2014,09,12,14,30,21.90
2014,09,12,14,31,21.90
2014,09,12,14,32,21.90
2014,09,12,14,33,21.90
2014,09,12,14,34,21.90
2014,09,12,14,35,22.00
2014,09,12,14,36,22.00
2014,09,12,14,37,22.00
2014,09,12,14,38,22.00
2014,09,12,14,39,22.10
2014,09,12,14,40,22.10
2014,09,12,14,41,22.10
2014,09,12,14,42,22.10
2014,09,12,14,43,22.10
2014,09,12,14,44,22.20
2014,09,12,14,45,22.20
2014,09,12,14,46,22.20
2014,09,12,14,47,22.20
2014,09,12,14,48,22.20
2014,09,12,14,49,22.20
2014,09,12,14,50,22.20
2014,09,12,14,51,22.20
2014,09,12,14,52,22.20
2014,09,12,14,53,22.20
2014,09,12,14,54,22.20
2014,09,12,14,55,22.20
2014,09,12,14,56,22.20
2014,09,12,14,57,22.10
2014,09,12,14,58,22.00
2014,09,12,14,59,22.00
2014,09,12,15,00,21.90
2014,09,12,15,01,21.90
2014,09,12,15,02,21.90
2014,09,12,15,03,21.90
2014,09,12,15,04,21.90
2014,09,12,15,05,22.00
2014,09,12,15,06,22.00
2014,09,12,15,07,22.10
2014,09,12,15,08,22.10
2014,09,12,15,09,22.10
2014,09,12,15,10,22.10
2014,09,12,15,11,22.00
2014,09,12,15,12,22.00
2014,09,12,15,13,22.00
2014,09,12,15,14,22.00
2014,09,12,15,15,21.90
2014,09,12,15,16,21.90
2014,09,12,15,17,21.90
2014,09,12,15,18,21.90
2014,09,12,15,19,21.90
2014,09,12,15,20,21.90
2014,09,12,15,21,21.90
2014,09,12,15,22,21.90
2014,09,12,15,23,21.90
2014,09,12,15,24,21.90
2014,09,12,15,25,22.00
2014,09,12,15,26,22.00
2014,09,12,15,27,22.00
2014,09,12,15,28,22.10
2014,09,12,15,29,22.10
2014,09,12,15,30,22.10
2014,09,12,15,31,22.10
2014,09,12,15,32,22.00
2014,09,12,15,33,22.00
2014,09,12,15,34,22.00
2014,09,12,15,35,22.10
2014,09,12,15,36,22.10
2014,09,12,15,37,22.10
2014,09,12,15,38,22.10
2014,09,12,15,39,22.20
2014,09,12,15,40,22.20
2014,09,12,15,41,22.20
2014,09,12,15,42,22.20
2014,09,12,15,43,22.20
2014,09,12,15,44,22.20
2014,09,12,15,45,22.30
2014,09,12,15,46,22.30
2014,09,12,15,47,22.30
2014,09,12,15,48,22.30
2014,09,12,15,49,22.30
2014,09,12,15,50,22.30
2014,09,12,15,51,22.30
2014,09,12,15,52,22.30
2014,09,12,15,53,22.30
2014,09,12,15,54,22.30
2014,09,12,15,55,22.30
2014,09,12,15,56,22.30
2014,09,12,15,57,22.30
2014,09,12,15,58,22.30
2014,09,12,15,59,22.30
2014,09,12,16,00,22.20
2014,09,12,16,01,22.20
2014,09,12,16,02,22.20
2014,09,12,16,03,22.20
2014,09,12,16,04,22.20
2014,09,12,16,05,22.20
2014,09,12,16,06,22.30
2014,09,12,16,07,22.30
2014,09,12,16,08,22.30
2014,09,12,16,09,22.30
2014,09,12,16,10,22.40
2014,09,12,16,11,22.40
2014,09,12,16,12,22.40
2014,09,12,16,13,22.30
2014,09,12,16,14,22.30
2014,09,12,16,15,22.30
2014,09,12,16,16,22.30
2014,09,12,16,17,22.30
2014,09,12,16,18,22.30
2014,09,12,16,19,22.30
2014,09,12,16,20,22.30
2014,09,12,16,21,22.30
2014,09,12,16,22,22.30
2014,09,12,16,23,22.30
2014,09,12,16,24,22.30
2014,09,12,16,25,22.30
2014,09,12,16,26,22.30
2014,09,12,16,27,22.30
2014,09,12,16,28,22.30
2014,09,12,16,29,22.30
2014,09,12,16,30,22.40
2014,09,12,16,31,22.40
2014,09,12,16,32,22.50
2014,09,12,16,33,22.50
2014,09,12,16,34,22.60
2014,09,12,16,35,22.60
2014,09,12,16,36,22.60
2014,09,12,16,37,22.60
2014,09,12,16,38,22.60
2014,09,12,16,39,22.60
2014,09,12,16,40,22.50
2014,09,12,16,41,22.60
2014,09,12,16,42,22.60
2014,09,12,16,43,22.60
2014,09,12,16,44,22.60
2014,09,12,16,45,22.60
2014,09,12,16,46,22.60
2014,09,12,16,47,22.60
2014,09,12,16,48,22.60
2014,09,12,16,49,22.60
2014,09,12,16,50,22.60
2014,09,12,16,51,22.60
2014,09,12,16,52,22.70
2014,09,12,16,53,22.70
2014,09,12,16,54,22.70
2014,09,12,16,55,22.70
2014,09,12,16,56,22.70
2014,09,12,16,57,22.70
2014,09,12,16,58,22.70
2014,09,12,16,59,22.70
2014,09,12,17,00,22.70
2014,09,12,17,01,22.70
2014,09,12,17,02,22.70
2014,09,12,17,03,22.70
2014,09,12,17,04,22.70
2014,09,12,17,05,22.70
2014,09,12,17,06,22.70
2014,09,12,17,07,22.60
2014,09,12,17,08,22.60
2014,09,12,17,09,22.60
2014,09,12,17,10,22.60
2014,09,12,17,11,22.50
2014,09,12,17,12,22.50
2014,09,12,17,13,22.50
2014,09,12,17,14,22.50
2014,09,12,17,15,22.40
2014,09,12,17,16,22.40
2014,09,12,17,17,22.30
2014,09,12,17,18,22.30
2014,09,12,17,19,22.30
2014,09,12,17,20,22.30
2014,09,12,17,21,22.30
2014,09,12,17,22,22.30
2014,09,12,17,23,22.20
2014,09,12,17,24,22.20
2014,09,12,17,25,22.10
2014,09,12,17,26,22.10
2014,09,12,17,27,22.10
2014,09,12,17,28,22.10
2014,09,12,17,29,22.10
2014,09,12,17,30,22.10
2014,09,12,17,31,22.10
2014,09,12,17,32,22.10
2014,09,12,17,33,22.00
2014,09,12,17,34,22.00
2014,09,12,17,35,21.90
2014,09,12,17,36,21.90
2014,09,12,17,37,21.90
2014,09,12,17,38,21.90
2014,09,12,17,39,21.90